Hourly Weather Lewis

Today, 12 August, Wednesday

Time Temperature Precipitation Wind Pressure Humidity
00:00 +15°C° 0 mm 1 mps 753 mmHg 93%
01:00 +15°C° 0 mm 1 mps 753 mmHg 93%
02:00 +14°C° 0 mm 1 mps 753 mmHg 94%
03:00 +14°C° 0 mm 1 mps 753 mmHg 94%
04:00 +14°C° 0 mm 1 mps 753 mmHg 94%
05:00 +14°C° 0 mm 2 mps 753 mmHg 94%
06:00 +15°C° 0 mm 2 mps 753 mmHg 96%
07:00 +15°C° 0 mm 2 mps 753 mmHg 93%
08:00 +16°C° 0 mm 2 mps 754 mmHg 90%
09:00 +17°C° 0 mm 3 mps 754 mmHg 87%
10:00 +17°C° 0 mm 3 mps 754 mmHg 86%
11:00 +17°C° 0 mm 3 mps 754 mmHg 85%
12:00 +17°C° 0 mm 2 mps 754 mmHg 82%
13:00 +17°C° 0 mm 3 mps 754 mmHg 81%
14:00 +17°C° 0 mm 3 mps 754 mmHg 81%
15:00 +17°C° 0 mm 4 mps 754 mmHg 80%
16:00 +17°C° 0 mm 4 mps 754 mmHg 82%
17:00 +15°C° 0 mm 5 mps 755 mmHg 85%
18:00 +14°C° 0 mm 5 mps 755 mmHg 87%
19:00 +14°C° 0 mm 4 mps 755 mmHg 89%
20:00 +14°C° 0 mm 4 mps 755 mmHg 90%
21:00 +13°C° 0 mm 4 mps 755 mmHg 91%
22:00 +13°C° 0 mm 4 mps 755 mmHg 93%
23:00 +12°C° 0 mm 4 mps 755 mmHg 94%

Tomorrow, 13 August, Thursday

Time Temperature Precipitation Wind Pressure Humidity
00:00 +12°C° 0 mm 5 mps 755 mmHg 96%
01:00 +12°C° 0 mm 5 mps 755 mmHg 95%
02:00 +12°C° 0 mm 5 mps 755 mmHg 94%
03:00 +13°C° 0 mm 5 mps 755 mmHg 93%
04:00 +13°C° 0 mm 5 mps 755 mmHg 92%
05:00 +13°C° 0 mm 5 mps 755 mmHg 91%
06:00 +13°C° 0 mm 6 mps 755 mmHg 90%
07:00 +13°C° 0 mm 6 mps 755 mmHg 87%
08:00 +14°C° 0 mm 6 mps 755 mmHg 83%
09:00 +15°C° 0 mm 6 mps 756 mmHg 80%
10:00 +15°C° 0 mm 6 mps 755 mmHg 76%
11:00 +16°C° 0 mm 6 mps 755 mmHg 73%
12:00 +17°C° 0 mm 6 mps 755 mmHg 69%
13:00 +17°C° 0 mm 6 mps 755 mmHg 68%
14:00 +17°C° 0 mm 6 mps 755 mmHg 68%
15:00 +17°C° 0 mm 6 mps 755 mmHg 67%
16:00 +17°C° 0 mm 6 mps 755 mmHg 69%
17:00 +16°C° 0 mm 7 mps 755 mmHg 71%
18:00 +15°C° 0 mm 7 mps 755 mmHg 74%
19:00 +14°C° 0 mm 6 mps 755 mmHg 78%
20:00 +13°C° 0 mm 6 mps 755 mmHg 83%
21:00 +11°C° 0 mm 6 mps 755 mmHg 87%
22:00 +12°C° 0 mm 5 mps 755 mmHg 89%
23:00 +12°C° 0 mm 5 mps 755 mmHg 90%

Day after tomorrow, 14 August, Friday

Time Temperature Precipitation Wind Pressure Humidity
00:00 +10°C° 0 mm 5 mps 755 mmHg 91%
01:00 +11°C° 0 mm 4 mps 755 mmHg 92%
02:00 +11°C° 0 mm 4 mps 754 mmHg 93%
03:00 +11°C° 0 mm 4 mps 754 mmHg 94%
04:00 +11°C° 0 mm 4 mps 754 mmHg 94%
05:00 +11°C° 0 mm 4 mps 754 mmHg 93%
06:00 +11°C° 0 mm 4 mps 754 mmHg 93%
07:00 +13°C° 0 mm 4 mps 754 mmHg 86%
08:00 +14°C° 0 mm 3 mps 754 mmHg 79%
09:00 +17°C° 0 mm 3 mps 754 mmHg 71%
10:00 +17°C° 0 mm 3 mps 754 mmHg 68%
11:00 +18°C° 0 mm 4 mps 754 mmHg 66%
12:00 +19°C° 0 mm 4 mps 754 mmHg 63%
13:00 +19°C° 0 mm 4 mps 754 mmHg 62%
14:00 +19°C° 0 mm 4 mps 754 mmHg 61%
15:00 +19°C° 0 mm 4 mps 754 mmHg 61%
16:00 +19°C° 0 mm 4 mps 754 mmHg 64%
17:00 +18°C° 0 mm 4 mps 754 mmHg 67%
18:00 +17°C° 0 mm 4 mps 754 mmHg 70%
19:00 +15°C° 0 mm 4 mps 754 mmHg 76%
20:00 +13°C° 0 mm 3 mps 754 mmHg 83%
21:00 +12°C° 0 mm 3 mps 754 mmHg 89%
22:00 +12°C° 0 mm 3 mps 754 mmHg 89%
23:00 +12°C° 0 mm 3 mps 754 mmHg 89%

15 August, Saturday

Time Temperature Precipitation Wind Pressure Humidity
00:00 +11°C° 0 mm 3 mps 754 mmHg 90%
01:00 +11°C° 0 mm 3 mps 754 mmHg 90%
02:00 +11°C° 0 mm 3 mps 754 mmHg 91%
03:00 +11°C° 0 mm 3 mps 754 mmHg 91%
04:00 +11°C° 0 mm 3 mps 754 mmHg 91%
05:00 +11°C° 0 mm 3 mps 754 mmHg 91%
06:00 +12°C° 0 mm 3 mps 754 mmHg 91%
07:00 +13°C° 0 mm 3 mps 754 mmHg 85%
08:00 +16°C° 0 mm 3 mps 754 mmHg 79%
09:00 +17°C° 0 mm 3 mps 754 mmHg 73%
10:00 +18°C° 0 mm 3 mps 754 mmHg 70%
11:00 +19°C° 0 mm 3 mps 754 mmHg 67%
12:00 +20°C° 0 mm 3 mps 754 mmHg 64%
13:00 +20°C° 0 mm 3 mps 754 mmHg 65%
14:00 +20°C° 0 mm 4 mps 754 mmHg 66%
15:00 +20°C° 0 mm 4 mps 754 mmHg 66%
16:00 +19°C° 0 mm 4 mps 754 mmHg 69%
17:00 +18°C° 0 mm 4 mps 754 mmHg 72%
18:00 +18°C° 0 mm 4 mps 754 mmHg 76%
19:00 +16°C° 0 mm 3 mps 754 mmHg 81%
20:00 +14°C° 0 mm 3 mps 754 mmHg 87%
21:00 +13°C° 0 mm 3 mps 754 mmHg 93%
22:00 +13°C° 0 mm 3 mps 754 mmHg 93%
23:00 +13°C° 0 mm 3 mps 753 mmHg 93%

16 August, Sunday

Time Temperature Precipitation Wind Pressure Humidity
00:00 +12°C° 0 mm 3 mps 753 mmHg 93%
01:00 +13°C° 0 mm 2 mps 753 mmHg 93%
02:00 +14°C° 0 mm 2 mps 753 mmHg 93%
03:00 +14°C° 0 mm 2 mps 753 mmHg 93%
04:00 +14°C° 0 mm 2 mps 752 mmHg 93%
05:00 +15°C° 0 mm 2 mps 752 mmHg 92%
06:00 +15°C° 0 mm 2 mps 752 mmHg 92%
07:00 +16°C° 0 mm 2 mps 752 mmHg 86%
08:00 +18°C° 0 mm 2 mps 752 mmHg 80%
09:00 +19°C° 0 mm 2 mps 752 mmHg 74%
10:00 +20°C° 0 mm 2 mps 752 mmHg 72%
11:00 +21°C° 0 mm 2 mps 752 mmHg 69%
12:00 +21°C° 0 mm 2 mps 751 mmHg 66%
13:00 +21°C° 0 mm 2 mps 751 mmHg 67%
14:00 +21°C° 0 mm 2 mps 751 mmHg 69%
15:00 +21°C° 0 mm 2 mps 751 mmHg 70%
16:00 +20°C° 0 mm 2 mps 750 mmHg 71%
17:00 +20°C° 0 mm 2 mps 750 mmHg 71%
18:00 +20°C° 0 mm 2 mps 750 mmHg 72%
19:00 +19°C° 0 mm 2 mps 750 mmHg 75%
20:00 +18°C° 0 mm 2 mps 750 mmHg 78%
21:00 +17°C° 0 mm 2 mps 750 mmHg 81%
22:00 +16°C° 0 mm 2 mps 750 mmHg 82%
23:00 +16°C° 0 mm 2 mps 749 mmHg 83%

17 August, Monday

Time Temperature Precipitation Wind Pressure Humidity
00:00 +14°C° 0 mm 3 mps 749 mmHg 84%
01:00 +14°C° 0 mm 3 mps 749 mmHg 85%
02:00 +13°C° 0 mm 3 mps 749 mmHg 86%
03:00 +13°C° 0 mm 3 mps 748 mmHg 87%
04:00 +13°C° 0 mm 3 mps 748 mmHg 87%
05:00 +13°C° 0 mm 3 mps 748 mmHg 87%
06:00 +13°C° 0 mm 3 mps 747 mmHg 87%
07:00 +14°C° 0 mm 3 mps 747 mmHg 82%
08:00 +14°C° 0 mm 3 mps 747 mmHg 78%
09:00 +16°C° 0 mm 3 mps 747 mmHg 74%
10:00 +17°C° 0 mm 3 mps 747 mmHg 72%
11:00 +17°C° 0 mm 3 mps 746 mmHg 70%
12:00 +18°C° 0 mm 3 mps 746 mmHg 68%
13:00 +18°C° 0.1 mm 3 mps 746 mmHg 70%
14:00 +18°C° 0.1 mm 4 mps 745 mmHg 72%
15:00 +18°C° 0.1 mm 4 mps 745 mmHg 74%
16:00 +17°C° 0.1 mm 3 mps 745 mmHg 76%
17:00 +17°C° 0.1 mm 3 mps 744 mmHg 79%
18:00 +17°C° 0.1 mm 2 mps 744 mmHg 81%
19:00 +16°C° 0 mm 2 mps 743 mmHg 85%
20:00 +15°C° 0 mm 2 mps 743 mmHg 89%
21:00 +14°C° 0 mm 1 mps 743 mmHg 93%
22:00 +14°C° 0 mm 1 mps 743 mmHg 93%
23:00 +14°C° 0 mm 1 mps 742 mmHg 93%
Show more